TimeCDT,TemperatureF,Dew PointF,Humidity,Sea Level PressureIn,VisibilityMPH,Wind Direction,Wind SpeedMPH,Gust SpeedMPH,PrecipitationIn,Events,Conditions,WindDirDegrees,DateUTC
12:53 AM,37.9,28.0,68,29.94,10.0,Calm,Calm,-,N/A,,Scattered Clouds,0,2012-11-01 05:53:00
1:53 AM,37.0,27.0,67,29.94,10.0,Calm,Calm,-,N/A,,Partly Cloudy,0,2012-11-01 06:53:00
2:53 AM,39.9,28.9,65,29.93,10.0,WNW,5.8,-,N/A,,Mostly Cloudy,290,2012-11-01 07:53:00
3:53 AM,42.1,30.0,62,29.92,10.0,NW,8.1,-,N/A,,Overcast,310,2012-11-01 08:53:00
5:53 AM,42.1,28.9,60,29.96,10.0,NNW,8.1,-,N/A,,Overcast,330,2012-11-01 10:53:00
6:53 AM,41.0,30.0,65,29.97,10.0,NW,9.2,-,N/A,,Mostly Cloudy,320,2012-11-01 11:53:00
7:53 AM,39.0,32.0,76,29.99,10.0,NW,9.2,-,N/A,,Overcast,320,2012-11-01 12:53:00
8:53 AM,41.0,30.9,67,30.00,10.0,NNW,6.9,-,N/A,,Overcast,330,2012-11-01 13:53:00
9:18 AM,41.0,30.2,65,29.98,10.0,NW,13.8,20.7,N/A,,Overcast,310,2012-11-01 14:18:00
9:53 AM,41.0,30.9,67,30.01,10.0,NNW,13.8,-,N/A,,Overcast,330,2012-11-01 14:53:00
10:53 AM,42.1,28.0,58,30.00,10.0,North,16.1,21.9,N/A,,Overcast,350,2012-11-01 15:53:00
11:53 AM,41.0,27.0,57,30.01,10.0,NW,15.0,-,N/A,,Overcast,320,2012-11-01 16:53:00
12:53 PM,43.0,25.0,49,30.01,10.0,NNW,10.4,-,N/A,,Scattered Clouds,330,2012-11-01 17:53:00
1:53 PM,44.1,26.1,49,29.99,10.0,NNW,11.5,-,N/A,,Mostly Cloudy,330,2012-11-01 18:53:00
2:53 PM,44.1,24.1,45,29.98,10.0,North,10.4,18.4,N/A,,Scattered Clouds,350,2012-11-01 19:53:00
3:53 PM,45.0,23.0,42,29.98,10.0,NNW,8.1,-,N/A,,Clear,340,2012-11-01 20:53:00
4:53 PM,44.1,21.9,42,29.99,10.0,North,12.7,16.1,N/A,,Clear,10,2012-11-01 21:53:00
5:53 PM,39.0,21.9,50,30.01,10.0,North,11.5,-,N/A,,Clear,10,2012-11-01 22:53:00
6:53 PM,36.0,21.0,55,30.04,10.0,North,5.8,-,N/A,,Clear,360,2012-11-01 23:53:00
7:53 PM,34.0,21.9,61,30.05,10.0,North,5.8,-,N/A,,Clear,360,2012-11-02 00:53:00
8:53 PM,32.0,21.0,64,30.05,10.0,NNW,5.8,-,N/A,,Clear,340,2012-11-02 01:53:00
9:53 PM,30.9,21.0,67,30.06,10.0,North,6.9,-,N/A,,Clear,10,2012-11-02 02:53:00
10:53 PM,28.9,21.0,72,30.07,10.0,North,5.8,-,N/A,,Clear,350,2012-11-02 03:53:00
11:53 PM,30.0,21.0,69,30.07,10.0,North,6.9,-,N/A,,Clear,10,2012-11-02 04:53:00